Location: Carri�res
(48.9069°N, 2.1792°E)
Time: 08:23:45
(UTC+00:00)

Cosmos 1626 - Visible Passes

Search period start: 11 May 2021 00:00
Search period end: 21 May 2021 00:00
Orbit: 488 x 494 km, 82.5° (Epoch: 10 May)

Date Brightness Start Highest point End Pass type
(mag) Time Alt. Az. Time Alt. Az. Time Alt. Az.
11 May 3.7 01:57:00 15° SSE 01:59:27 30° E 02:02:43 10° NNE visible
11 May 3.6 03:31:48 10° WSW 03:34:43 22° WNW 03:37:39 10° NNW visible
12 May 4.2 01:34:41 13° SE 01:36:53 21° E 01:39:44 10° NE visible
12 May 3.1 03:09:11 13° SW 03:11:56 30° WNW 03:15:15 10° N visible
13 May 4.7 01:12:20 10° ESE 01:14:22 15° E 01:16:31 10° NE visible
13 May 2.6 02:46:50 19° SW 02:49:12 44° WNW 02:52:46 10° N visible
14 May 4.9 00:51:13 10° E 00:51:52 10° E 00:52:29 10° ENE visible
14 May 2.1 02:24:28 25° SSW 02:26:29 67° W 02:30:11 10° N visible
15 May 2.1 02:02:05 30° S 02:03:48 82° E 02:07:31 10° NNE visible
16 May 2.6 01:39:41 31° SSE 01:41:10 53° E 01:44:47 10° NNE visible
16 May 4.3 03:14:49 10° W 03:16:44 14° WNW 03:18:40 10° NW visible
17 May 3.3 01:17:15 27° SE 01:18:33 36° E 01:21:57 10° NNE visible
17 May 3.9 02:51:46 12° WSW 02:53:54 19° WNW 02:56:35 10° NNW visible
18 May 3.8 00:54:49 21° ESE 00:55:58 25° E 00:59:01 10° NE visible
18 May 3.4 02:29:19 18° WSW 02:31:06 26° WNW 02:34:16 10° NNW visible
19 May 4.2 00:32:22 16° ESE 00:33:24 17° E 00:35:55 10° NE visible
19 May 2.9 02:06:52 26° WSW 02:08:20 37° WNW 02:11:49 10° N visible
20 May 4.6 00:09:54 11° E 00:10:53 12° E 00:12:25 10° ENE visible
20 May 2.3 01:44:24 36° SW 01:45:37 55° WNW 01:49:15 10° N visible
